Other Public Products
Issued by NWS Grand Forks, ND

Home | Current Version | Previous Version | Graphics & Text | Print | Product List | Glossary On
Versions: 1 2 3 4 5 6 7 8 9 10 11 12 13 14 15 16 17 18 19 20 21 22 23 24 25 26 27 28 29 30 31 32 33 34 35 36 37 38 39 40 41 42 43 44 45 46 47 48 49 50
000
FPUS83 KFGF 281610
OPUFGF
PRAIRIE TO PINES WEATHER ROUNDUP
NATIONAL WEATHER SERVICE EASTERN NORTH DAKOTA/GRAND FORKS ND
1100 AM CDT THU AUG 28 2014

 **SATELLITE DATA USED TO AUGMENT SKY COVER AT AUTOMATED STATIONS**
 *****  WEATHER ACROSS EASTERN NORTH DAKOTA  *****

CITY           SKY/WX    TMP DP  RH WIND       PRES   REMARKS
GRAND FORKS    CLOUDY    70  63  78 S15       29.94F
GRAND FORKS AF MOSUNNY   71  67  89 S13       29.95F
GRAND CITY NWS   N/A     70 N/A N/A S5          N/A
BUXTON         NOT AVBL
DEVILS LAKE    CLOUDY    70  61  73 SW10      29.92S
FARGO          CLOUDY    68  61  78 SE13      29.97F
WAHPETON ARPT  CLOUDY    64  59  82 SE9       29.99S
$$

 *****  WEATHER ACROSS CENTRAL AND WESTERN NORTH DAKOTA  *****

CITY           SKY/WX    TMP DP  RH WIND       PRES   REMARKS
JAMESTOWN      CLOUDY    70  65  84 S9        29.94F
BISMARCK       CLOUDY    69  64  84 CALM      29.94F
MINOT          MOSUNNY   75  63  66 S8        29.87F
MINOT AFB      MOSUNNY   75  66  73 SW6       29.87S
GARRISON         N/A     65  62  90 S6        29.92S
WILLISTON      NOT AVBL
DICKINSON      MOSUNNY   76  58  53 SW6       29.92F
HETTINGER      CLOUDY    63  61  93 SE6       29.98R
$$

 *****  OTHER OBSERVATIONS NORTHEAST NORTH DAKOTA  *****

CITY           SKY/WX    TMP DP  RH WIND       PRES   REMARKS
WALHALLA         N/A     72  68  88 S8        29.91F
LANGDON        FAIR      72  63  73 S12       29.93F
CAVALIER       PTSUNNY   66  63  88 S10       29.93S
GRAFTON        PTSUNNY   70  64  83 S12       29.93F
CANDO          FAIR      68  64  88 S6        29.93S
FORT TOTTEN    NOT AVBL
ROLLA          FAIR      66  66 100 SW14      29.91F
RUGBY          FAIR      70  64  83 S7        29.91S
 ***** THE ABOVE OBSERVATIONS ARE NON NWS ARE NOT QUALITY
        CONTROLLED AND MAY MIS-REPORT RAIN FOR SNOW...
$$

 *****  OTHER OBSERVATIONS SOUTHEAST NORTH DAKOTA *****

CITY           SKY/WX    TMP DP  RH WIND       PRES   REMARKS
COOPERSTOWN    NOT AVBL
VALLEY CITY    CLOUDY    68  68 100 S7        29.96F
OAKES            N/A     66  66 100 E9        29.96S
GWINNER        PTSUNNY   66  66 100 SE8       29.98S
SHEYENNE NWR     N/A     67  62  84 SE7       29.95
BUFFALO        NOT AVBL
WYNDMERE       NOT AVBL
 ***** THE ABOVE OBSERVATIONS ARE NON NWS ARE NOT QUALITY
       CONTROLLED AND MAY MIS-REPORT RAIN FOR SNOW...
$$

  *****  WEATHER ACROSS NORTHERN MINNESOTA  *****

CITY           SKY/WX    TMP DP  RH WIND       PRES   REMARKS
FLAG ISLAND    PTSUNNY   68  61  77 S10       29.98F
WARROAD        MOSUNNY   70  63  78 S7        29.99F
ROSEAU         MOSUNNY   72  63  73 S15       29.98S
HALLOCK        CLOUDY    68  63  83 S14       29.94S
THF RVR FALLS  CLOUDY    64  61  88 S8        29.99F
HALSTAD          N/A     70  61  73 S10         N/A
FOSSTON        PTSUNNY   64  61  88 SE6       30.02F
BAUDETTE       CLOUDY    69  60  73 S13G18    30.01F
WASKISH        CLOUDY    66  61  82 SE3       30.03F HAZE
CROOKSTON      PTSUNNY   66  63  88 S9        29.97F
$$
  *****  WEATHER ACROSS CENTRAL AND WEST MINNESOTA  *****

CITY           SKY/WX    TMP DP  RH WIND       PRES   REMARKS
BEMIDJI        CLOUDY    66  59  77 S10       30.04F
PARK RAPIDS    CLOUDY    67  59  75 SE12      30.04F
WADENA         PTSUNNY   66  59  77 SE8       30.03F
DETROIT LAKES  PTSUNNY   68  61  77 SE12      30.02F
MOORHEAD       PTSUNNY   70  64  83 S9        29.98F
FERGUS FALLS   PTSUNNY   66  59  77 S10       30.00F
ELBOW LAKE     CLOUDY    67  60  79 SE14      30.01S
MORRIS MN      CLOUDY    70  61  73 SE13      29.99F
STAPLES        CLOUDY    64  57  77 SE8       30.05S
WHEATON        CLOUDY    63  61  94 SE10      30.00F
$$
  *****  WEATHER ELSEWHERE ACROSS MINNESOTA  *****

CITY           SKY/WX    TMP DP  RH WIND       PRES   REMARKS
DULUTH         SUNNY     67  52  58 S10       30.11F
INTRNTL FALLS  MOSUNNY   69  58  67 VRB7G17   30.05S
ELY            MOSUNNY   66  54  63 S9        30.10F
CLOQUET        MOSUNNY   66  54  63 E5        30.11S
BRAINERD       CLOUDY    68  60  75 S6        30.07S
HIBBING        SUNNY     69  56  62 SE6       30.09F
ALEXANDRIA     CLOUDY    67  60  78 SE13      30.04F
SAINT CLOUD    PTSUNNY   73  60  63 SE15G22   30.05F
MINNEAPOLIS    PTSUNNY   70  59  68 E13       30.06F
$$

  *****  WEATHER ACROSS SOUTH DAKOTA  *****

CITY           SKY/WX    TMP DP  RH WIND       PRES   REMARKS
SIOUX FALLS    LGT RAIN  70  66  87 SE13      29.95S
BROOKINGS      NOT AVBL
WATERTOWN      LGT RAIN  66  64  93 SE6       29.96F
HURON          LGT RAIN  68  67  96 SE8       29.91S
SISSETON         N/A     66  63  90 SE8       29.97S
ABERDEEN       CLOUDY    68  66  93 E7        29.94F
MITCHELL       CLOUDY    71  69  93 SE12      29.92S
PIERRE         CLOUDY    69  68  96 NE6       29.91S
MOBRIDGE       LGT RAIN  67  67 100 SE6       29.92S
RAPID CITY     CLOUDY    68  59  73 CALM      30.01S
$$

  *****  SOME WEATHER IN NEARBY STATES *****

CITY           SKY/WX    TMP DP  RH WIND       PRES   REMARKS
GLASGOW MT     SUNNY     72  56  57 W7        29.88F
GREAT FALLS MT MOSUNNY   76  47  35 SW12      30.01F
CHEYENNE WY    CLOUDY    58  48  69 NW16G25   30.18R
SCOTTSBLUFF NE CLOUDY    64  60  87 W14       30.06S
OMAHA NE       CLOUDY    75  70  84 SE17      29.94S
DES MOINES IA  LGT RAIN  69  67  93 SE9       30.02S FOG
DAVENPORT IA   CLOUDY    70  61  73 SE10      30.09S
CHICAGO IL     MOSUNNY   73  52  47 E8        30.13S
EAU CLAIRE WI  PTSUNNY   68  56  65 SE9       30.11F
LA CROSSE WI   PTSUNNY   73  61  65 S9        30.10F
$$

  *****  SOME NATIONAL WEATHER *****

CITY           SKY/WX    TMP DP  RH WIND       PRES   REMARKS
LA GUARDIA NY  MOSUNNY   77  56  48 NW10      29.89F
RALEIGH NC     MOSUNNY   86  69  56 VRB3      30.01F HX  90
ATLANTA GA     MOSUNNY   85  63  47 CALM      30.08S
NEW ORLEANS LA PTSUNNY   88  71  57 SE12      30.01R HX  94
OKLAHOMA CITY  MOSUNNY   87  62  43 S14       29.97F
ALBUQUERQUE NM MOSUNNY   70  44  39 W7        30.25S
SALT LAKE CITY MOSUNNY   69  52  54 S9        30.23S
LOS ANGELES CA MOSUNNY   76  62  62 VRB3      30.00S
BOISE ID       SUNNY     72  43  35 CALM      30.09R
SEATTLE WA     CLOUDY    61  56  83 S5        30.12R
$$

*** WEATHER ACROSS MANITOBA...SASKATCHEWAN AND ONTARIO ***
                ***ONTARIO***

CITY           SKY/WX    TMP DP  RH WIND       PRES   REMARKS
GERALDTON      MOSUNNY   64  48  55 NW6       30.12F
THUNDER BAY    MOSUNNY   66  55  68 E7        30.12F
SIOUX LOOKOUT  MOSUNNY   68  54  60 SW9       30.05F
TORONTO        PTSUNNY   70  46  43 N15       30.11F
BIG TROUT LK   NOT AVBL
PICKLE LAKE    MOSUNNY   68  48  49 S12G20    30.02F
DRYDEN         SUNNY     68  57  68 S7        30.04F
KENORA         PTSUNNY   68  59  73 S10G17    30.01F
$$
                *** MANITOBA***

CITY           SKY/WX    TMP DP  RH WIND       PRES   REMARKS
BRANDON        MOSUNNY   75  64  69 SW13      29.84F
DAUPHIN        SUNNY     75  63  64 SW14      29.76F
ISLAND LAKE    PTSUNNY   70  59  68 SW6       29.78F
PILOT MOUND      N/A     72  63  73 S13         N/A
THE PAS        PTSUNNY   68  61  77 W8        29.73F
THOMPSON       CLOUDY    64  61  88 CALM      29.72S
WINNIPEG       MOSUNNY   72  61  68 S16       29.91F
LYNN LAKE      CLOUDY    57  54  88 MISG      29.73S
CHURCHILL      PTSUNNY   64  57  77 W16G23    29.55R
GILLAM         PTSUNNY   68  54  60 W8        29.68S
$$
                ***SASKATCHEWAN***

CITY           SKY/WX    TMP DP  RH WIND       PRES   REMARKS
ESTEVAN        MOSUNNY   73  63  68 W6        29.85F
KINDERSLEY     PTSUNNY   66  54  63 NE16      29.91R
LLOYDMINSTER   PTSUNNY   59  54  82 W10       29.90S
PRINCE ALBERT  PTSUNNY   61  55  82 W9        29.84R
REGINA         SUNNY     68  59  73 VRB2      29.83S



USA.gov is the U.S. government's official web portal to all federal, state and local government web resources and services.